Weather in Dalneye

Russia / Kaliningrad Oblast     54°46′29″N   21°31′18″E
temp.,
°C
wind,
m/s
gust,
m/s
humid.,
%
clouds,
%
prec.,
mm/h
press.,
hPa
HPBL,
m
22 september, wed
wed2223:00+6n2880100 0.0 1022180
02:00+4n248913 0.0 102277
05:00+4n37899 0.0 1021122
08:00+7n2578100 0.0 1022193
11:00+10n367078 0.0 1023659
14:00+12nnw355699 0.0 10221339
17:00+12nw4766100 0.0 1021667
20:00+8nnw2285100 0.0 102123
23 september, thu
thu2323:00+8wsw1187100 0.0 101932
02:00+8sw2589100 0.1 1017111
05:00+8ssw3889100 0.0 1015205
08:00+9ssw389069 0.1 1012263
11:00+15wsw5772100 0.0 1009879
14:00+13sw51083100 0.1 1006833
17:00+13sw51286100 0.7 1002900
20:00+13sw81693100 2.8 9971136
24 september, fri
fri2423:00+12w9168899 4.3 9941323
02:00+10w8158166 5.9 9931267
05:00+10wnw91684100 1.3 9941544
08:00+11wnw91675100 1.8 9961586
11:00+11nw8157699 0.9 9991630
14:00+14nw8156275 1.1 10021766
17:00+13nw61363100 0.0 10041449
20:00+11w51281100 0.2 1006589
25 september, sat
sat2523:00+12w41080100 0.2 1006654
02:00+13w51294100 4.1 1004894
05:00+13wsw61490100 0.1 10051037
08:00+14w61389100 0.3 1006993
11:00+15w7138243 0.5 10081272
14:00+17wnw7136988 0.9 10091467
17:00+15wnw612766 0.1 10121230
20:00+12w411865 0.2 1014446
26 september, sun
sun2623:00+10wsw389628 0.0 1016168
02:00+10w23964 0.0 101849
05:00+9w11950 0.0 101910
08:00+11e12900 0.0 102179
11:00+16e22620 0.0 1023616
14:00+18e22513 0.0 10231078
17:00+16e35625 0.0 1023219
20:00+11e368228 0.0 102497